Date,TemperatureHighF,TemperatureAvgF,TemperatureLowF,DewpointHighF,DewpointAvgF,DewpointLowF,HumidityHigh,HumidityAvg,HumidityLow,PressureMaxIn,PressureMinIn,WindSpeedMaxMPH,WindSpeedAvgMPH,GustSpeedMaxMPH,PrecipitationSumIn
2012-12-1,34.1,24.6,18.0,29.5,19.3,10.6,85,80,71,30.58,30.38,20,3,20,0.00
2012-12-2,48.2,42.2,33.1,44.5,38.3,28.5,93,86,77,30.38,29.92,33,9,33,0.04
2012-12-3,49.6,43.4,39.5,45.2,37.9,34.0,94,81,71,30.25,29.92,22,4,22,0.00
2012-12-4,55.0,48.2,39.1,52.7,44.1,35.8,93,85,79,30.23,29.81,29,8,29,0.05
2012-12-5,53.9,39.9,28.7,52.2,31.0,16.3,97,71,53,30.25,29.82,29,6,29,0.27
2012-12-6,37.0,29.7,26.9,20.1,17.6,15.8,71,61,45,30.40,30.19,15,3,19,0.00
2012-12-7,38.9,35.3,29.1,34.0,24.9,17.5,90,67,51,30.19,30.00,32,8,32,0.00
2012-12-8,43.3,39.0,34.9,40.8,37.0,33.2,97,92,90,30.01,29.77,20,2,20,0.02
2012-12-9,43.9,35.6,30.3,40.8,29.1,25.3,97,77,61,30.32,29.95,16,4,16,0.00
2012-12-10,49.2,39.8,30.1,47.5,38.3,28.3,98,94,85,30.06,29.46,22,5,22,0.62
2012-12-11,40.2,29.5,21.3,37.2,24.7,18.0,96,82,72,30.19,29.59,19,4,19,0.01
2012-12-12,38.2,29.2,19.2,27.5,22.9,16.9,93,78,62,30.38,30.19,11,2,11,0.00
2012-12-13,34.0,30.8,24.5,27.0,24.4,20.6,90,77,69,30.46,30.21,18,3,18,0.00
2012-12-14,42.1,36.5,31.2,30.9,26.5,23.8,75,67,54,30.22,30.06,20,4,20,0.00
2012-12-15,34.7,24.5,18.6,25.9,15.6,10.2,80,69,49,30.42,30.22,19,4,19,0.00
2012-12-16,32.7,26.4,18.6,29.3,22.1,13.5,91,84,76,30.31,29.97,15,2,15,0.00
2012-12-17,37.3,34.2,31.8,33.2,30.7,27.3,94,87,77,29.97,29.76,20,4,20,0.07
2012-12-18,40.9,38.2,35.6,40.1,37.0,32.4,98,96,87,29.76,29.44,9,1,9,0.44
2012-12-19,38.2,36.8,35.2,37.3,32.4,27.1,98,84,68,30.10,29.50,16,5,16,0.00
2012-12-20,37.3,32.9,28.4,30.4,27.3,25.0,89,80,70,30.22,29.88,16,2,16,0.00
2012-12-21,50.7,39.7,32.5,44.8,34.9,30.5,97,83,66,29.88,28.88,37,7,37,0.28
2012-12-22,37.6,30.1,25.0,31.8,19.7,10.6,85,65,51,29.71,29.07,23,8,23,0.01
2012-12-23,32.9,26.6,21.6,27.7,18.0,9.2,91,70,51,29.85,29.71,26,4,26,0.00
2012-12-24,35.9,25.1,18.0,21.2,16.0,11.4,85,69,45,30.08,29.85,15,2,15,0.00
2012-12-25,23.9,20.3,14.4,19.2,13.9,8.4,88,76,66,30.35,30.01,18,4,18,0.00
2012-12-26,24.7,19.4,13.3,17.2,13.5,8.0,89,77,62,30.40,30.01,17,4,17,0.00
2012-12-27,26.0,23.4,18.4,25.0,21.9,16.0,96,94,89,30.01,29.64,26,7,26,0.00
2012-12-28,30.7,25.2,20.5,25.3,22.1,18.0,95,88,79,30.05,29.81,23,2,23,0.02
2012-12-29,25.6,21.7,14.8,23.9,19.8,12.2,94,92,90,30.04,29.62,20,2,20,0.00
2012-12-30,23.6,18.4,16.5,16.0,11.1,5.8,90,74,58,30.10,29.63,24,8,24,0.01
2012-12-31,31.9,24.7,17.3,26.7,17.9,10.8,86,75,62,30.09,29.67,23,4,23,0.00